Orbital Elements at Epoch 2459200.5 (2020-Dec-17.0) TDB
Reference: JPL 11 (heliocentric ecliptic J2000)
Element | Value | Uncertainty (1-sigma) | Units |
e | .1779022027879643 | 5.0841e-08 | |
a | 2.572374421730752 | 1.4168e-08 | au |
q | 2.114743345709436 | 1.2815e-07 | au |
i | 5.473676827535987 | 7.0367e-06 | deg |
node | 315.9869514927399 | 6.3754e-05 | deg |
peri | 77.90905912806581 | 6.7955e-05 | deg |
M | 27.50432979794886 | 2.0689e-05 | deg |
tp | 2459085.367412055372 (2020-Aug-23.86741206) | 8.6707e-05 | TDB |
period | 1506.95297666031 4.13 | 1.245e-05 3.409e-08 | d yr |
n | .2388926566227881 | 1.9736e-09 | deg/d |
Q | 3.030005497752069 | 1.6688e-08 | au |
|
| | Orbit Determination Parameters
Additional Information
|